Location: Clatteringshaws Loch
(55.0508°N, 4.2860°W)
Time: 19:01:21
(UTC+01:00)

SR - Visible Passes

Search period start: 21 August 2014 00:00
Search period end: 31 August 2014 00:00
Orbit: 575 x 891 km, 66.7° (Epoch: 19 August)

Date Brightness Start Highest point End Pass type
(mag) Time Alt. Az. Time Alt. Az. Time Alt. Az.
22 Aug ? 05:21:19 10° SE 05:24:18 15° ESE 05:27:22 10° ENE visible
24 Aug ? 05:25:03 10° SSE 05:29:31 25° ESE 05:34:11 10° ENE visible
25 Aug ? 04:38:43 10° SE 04:41:49 15° ESE 04:45:00 10° ENE visible
26 Aug ? 05:29:41 10° S 05:34:54 40° ESE 05:40:24 10° NE visible
27 Aug ? 04:42:30 10° SSE 04:47:02 25° ESE 04:51:46 10° ENE visible
28 Aug ? 03:56:07 10° SE 03:59:19 16° ESE 04:02:37 10° ENE visible
28 Aug ? 05:34:51 10° SSW 05:40:28 63° SE 05:46:22 10° NE visible
29 Aug ? 04:47:10 10° S 04:52:26 41° ESE 04:57:57 10° NE visible
30 Aug ? 03:59:57 10° SSE 04:04:33 26° ESE 04:09:20 10° ENE visible
30 Aug ? 05:40:26 10° SW 05:46:12 87° NW 05:52:14 10° NE visible
